Starlink 31565

operational
NORAD ID: 59323 Int'l Des: 2024-057 Owner: SPXS Country: US Constellation: starlink
LEOCIRCULAR

Starlink 31565について

説明を読み込み中...

リアルタイム位置

3D地球を読み込み中...

次回通過

高度履歴

Altitude vs Time

uPlot chart will show altitude changes over time

軌道要素

1 59323U 24057D 25354.19988495 .00002256 00000-0 91504-4 0 9990
2 59323 43.0032 283.6514 0001125 265.3165 94.7559 15.27575788 97596
Epoch: Dec 20, 2025 • Age: 11 hours

現在のステータス

高度 485.9 km
速度 7.63 km/s
衛星直下点 38.35°N, 69.66°E
打ち上げ日 Mar 25, 2024
運用期間 1.7 years
タイプ internet

技術仕様

分類 Payload
質量 730.00 kg
乾燥質量 700.00 kg
総質量 730.00 kg
長さ 0.30 m
直径 4.10 m
スパン 29.00 m
形状 Box + pan
製造者 SPXS
バスタイプ Starlink V2M
フェーズステータス In Orbit
所有者/国 SPXS/US

大規模コンステレーション

Loading constellations...